This demonstration page uses our WeatherBlox Daily Observations layout. Learn more.

38.89511, -77.03637

Hourly Observations for January 16, 2021

Temp ( °F °C ) Dew Point ( °F °C ) Humidity (%) Winds ( mph kmh ) Pressure ( in mb ) Visibility ( mi km ) Precip ( " mm )
12:30 am 00:30 Cloudy 47 8.3 44 6.7 90 90 SW 5 7 29.64 1004 9 14.48406 0 0
12:52 am 00:52 Cloudy 46 7.8 44 6.7 93 93 Calm 29.62 1003 8 12.87472 0 0
1:00 am 01:00 Cloudy 46 7.8 44 6.7 93 93 WSW 3 6 29.64 1004 8 12.87472 0 0
1:52 am 01:52 Cloudy 45 7.2 40 4.4 83 83 NW 10 17 29.62 1003 10 16.0934 0 0
2:52 am 02:52 Cloudy 43 6.1 35 1.7 74 74 NW 13 20 29.62 1003 10 16.0934 0 0
3:09 am 03:09 Partly Cloudy 42 5.6 34 1.1 73 73 NW 9 15 29.61 1003 10 16.0934 0 0
3:52 am 03:52 Clear 41 5 34 1.1 76 76 NW 9 15 29.6 1002 10 16.0934 0 0
4:52 am 04:52 Clear 39 3.9 34 1.1 82 82 NW 12 19 29.58 1002 10 16.0934 0 0
5:52 am 05:52 Clear 39 3.9 33 0.6 79 79 WNW 9 15 29.58 1002 10 16.0934 0 0
6:52 am 06:52 Mostly Clear 38 3.3 32 0 79 79 WNW 9 15 29.59 1002 10 16.0934 0 0
7:52 am 07:52 Mostly Sunny 38 3.3 31 -0.6 76 76 WNW 9 15 29.58 1002 10 16.0934 0 0
8:52 am 08:52 Partly Cloudy 40 4.4 31 -0.6 70 70 NW 12 19 29.58 1002 10 16.0934 0 0
9:52 am 09:52 Mostly Cloudy 43 6.1 31 -0.6 63 63 WNW 9 15 29.6 1002 10 16.0934 0 0
10:52 am 10:52 Mostly Cloudy 43 6.1 31 -0.6 63 63 NNW 10 17 29.57 1002 10 16.0934 0 0
11:52 am 11:52 Mostly Cloudy 46 7.8 30 -1.1 54 54 NW 7 11 29.54 1000 10 16.0934 0 0
12:52 pm 12:52 Mostly Cloudy 47 8.3 27 -2.8 46 46 W 10 17 29.51 999 10 16.0934 0 0
1:52 pm 13:52 Mostly Cloudy 47 8.3 24 -4.4 41 41 NW 10 17 29.5 999 10 16.0934 0 0
2:52 pm 14:52 Cloudy 47 8.3 24 -4.4 41 41 WNW 12 19 29.5 999 10 16.0934 0 0
3:52 pm 15:52 Cloudy 46 7.8 27 -2.8 47 47 WNW 12 19 29.52 1000 10 16.0934 0 0
4:52 pm 16:52 Cloudy 45 7.2 27 -2.8 49 49 W 15 24 29.54 1001 10 16.0934 0 0
5:52 pm 17:52 Cloudy 44 6.7 27 -2.8 51 51 W 12 19 29.57 1002 10 16.0934 0 0
6:52 pm 18:52 Cloudy 41 5 31 -0.6 67 67 WSW 10 17 29.6 1003 10 16.0934 0 0
7:52 pm 19:52 Partly Cloudy 39 3.9 30 -1.1 70 70 WSW 8 13 29.62 1003 10 16.0934 0 0
8:52 pm 20:52 Mostly Clear 39 3.9 26 -3.3 60 60 W 10 17 29.64 1004 10 16.0934 0 0
9:52 pm 21:52 Mostly Clear 38 3.3 24 -4.4 57 57 WSW 6 9 29.65 1004 10 16.0934 0 0
10:52 pm 22:52 Clear 39 3.9 22 -5.6 50 50 W 12 19 29.67 1005 10 16.0934 0 0
11:52 pm 23:52 Mostly Clear 35 1.7 23 -5 61 61 SSW 7 11 29.68 1005 10 16.0934 0 0

Powered by AerisWeather